Location: Freemans Gardens
(41.6414°N, 83.6077°W)
Time: 03:39:14
(UTC+00:00)

CSL-04 Rocket - Pass Details

Date: 29 October 2020
Orbit: 805 x 861 km, 98.9° (Epoch: 26 November)

Event Time Altitude Azimuth Distance (km) Brightness Sun altitude
Exits shadow 23:39:11 - 132° (SE) 3,058 6.2 -13.0°
Reaches altitude 10° 23:40:48 10° 125° (SE) 2,490 5.7 -13.3°
Maximum altitude 23:45:34 31° 66° (ENE) 1,471 4.4 -14.2°
Drops below altitude 10° 23:50:19 10° 6° (N) 2,483 6.0 -15.1°
Sets 23:52:55 0° 356° (N) 3,414 6.9 -15.6°
